Preview of NWS' New Version of Forecast
This preview is not operational and should not be used for support decisions.

Regional Weather Roundup (RWR)

Issued by National Weather Service (NWS)

                            
000
ASUS45 KABQ 190510
RWRNM 
NEW MEXICO REGIONAL WEATHER ROUNDUP
NATIONAL WEATHER SERVICE ALBUQUERQUE NM
1100 PM MDT SUN AUG 18 2019

NOTE: "FAIR" MEANS FEW OR NO CLOUDS BELOW 12,000 FEET AGL WITH NO
       SIGNIFICANT WEATHER OR OBSTRUCTIONS TO VISION.

      THIS PRODUCT IS RELEASED AS TWO VERSIONS.  ONE VERSION NEAR
      THE TOP OF THE HOUR CONTAINING PRELIMINARY DATA FROM ALBUQUERQUE
      AND OTHER STATIONS.  A FINAL VERSION WITH ADDITIONAL DATA IS 
      ISSUED ABOUT 10 MINUTES AFTER THE HOUR.
 
NMZ501-503-504-510>518-190600-
NORTHWEST PLATEAU/NORTHCENTRAL MOUNTAINS
  
CITY           SKY/WX    TMP DP  RH WIND       PRES   REMARKS
FARMINGTON     FAIR      69  19  15 N8        30.10R                  
LOS ALAMOS       N/A     76  21  12 W9        30.26S                  
SANTA FE       FAIR      63  33  32 N5        30.18R                  
TAOS             N/A     64  25  22 E9        30.27R                  
ANGEL FIRE     FAIR      44  34  67 CALM      30.39R                  

$$
NMZ402-403-502-505>509-190600-
WESTCENTRAL MOUNTAINS/SOUTHWEST MOUNTAINS
  
CITY           SKY/WX    TMP DP  RH WIND       PRES   REMARKS
GALLUP         FAIR      64  20  18 S5        30.22S                  
GRANTS         FAIR      71  25  17 NW10G16   30.24R                  
SILVER CITY    FAIR      71  37  28 N8        30.15R                  

$$
NMZ407-409-411-412-190600-
SOUTHERN DESERTS
  
CITY           SKY/WX    TMP DP  RH WIND       PRES   REMARKS
DEMING         FAIR      80  36  20 NW8       30.05R                  
LAS CRUCES     FAIR      83  29  14 W10       30.05R                  
HOLLOMAN AFB   FAIR      80  37  21 CALM      30.01R                  
ALAMOGORDO     FAIR      79  36  21 SE6       30.01R                  
T OR C         FAIR      83  32  16 SW3       30.05R                  

$$
NMZ519>523-190600-
CENTRAL VALLEYS/CENTRAL HIGHLANDS
  
CITY           SKY/WX    TMP DP  RH WIND       PRES   REMARKS
ALBUQUERQUE    MOCLDY    79  31  17 E7        30.09S                  
MORIARTY ARPT  FAIR      68  34  28 CALM      30.19S                  
CLINES CORNERS FAIR      72  27  18 W5        30.26R                  
BELEN          FAIR      73  28  18 W10       30.09R                  
SOCORRO        FAIR      80  30  16 CALM      30.05R                  

$$
NMZ524>526-539-540-190600-
SOUTHCENTRAL MOUNTAINS
  
CITY           SKY/WX    TMP DP  RH WIND       PRES   REMARKS
RUIDOSO        FAIR      73  36  25 W5        30.26R                  

$$
NMZ527>531-190600-
NORTHEAST HIGHLANDS/NORTHEAST PLAINS
  
CITY           SKY/WX    TMP DP  RH WIND       PRES   REMARKS
LAS VEGAS      FAIR      63  25  23 E13       30.24R                  
RATON          FAIR      67  42  40 N7        30.20R                  
CLAYTON        FAIR      68  54  60 NE3       30.09R                  

$$
NMZ532>537-190600-
EASTCENTRAL PLAINS
  
CITY           SKY/WX    TMP DP  RH WIND       PRES   REMARKS
TUCUMCARI      FAIR      79  51  37 E8        29.98R                  
CANNON AFB     FAIR      77  51  40 S8        30.02R                  
CLOVIS AIRPORT FAIR      74  54  49 S8        30.02R                  

$$
NMZ028-029-538-190600-
SOUTHEAST PLAINS
  
CITY           SKY/WX    TMP DP  RH WIND       PRES   REMARKS
ROSWELL        FAIR      84  44  24 SW8       29.93R                  
ARTESIA        FAIR      88  46  23 SW10      29.95R                  
CARLSBAD       FAIR      89  45  21 E9        29.91R                  
HOBBS          FAIR      90  54  29 S13       29.97R                  


$$